Theta_e
315 321 322 325 340 346 348 350 350 355 354 347 346 349 348 349 352 355 346 349 351 352 355 347 342 328 323 333 338 340 340 340 342 338 334 331 332 336 337 335 337 340 341 340 341 342 342 343 344
316 322 322 326 345 339 344 340 353 352 349 346 346 347 348 350 346 343 347 345 351 348 354 350 342 338 325 324 332 337 338 340 339 335 334 333 332 332 332 333 334 338 342 343 342 342 343 343 343
323 323 326 332 338 342 342 345 349 346 345 347 348 345 346 347 344 346 347 347 349 348 351 352 340 341 331 324 327 333 336 336 336 336 335 335 333 332 332 332 334 335 338 341 343 345 346 343 342
322 319 325 338 339 336 339 346 345 347 346 346 347 348 347 347 345 349 350 347 351 352 352 340 339 341 336 326 327 329 333 335 336 336 335 335 334 333 333 333 333 334 336 337 338 339 340 340 339
314 319 331 336 334 332 333 344 345 347 348 349 350 350 348 347 347 345 348 349 352 352 352 352 343 344 341 331 327 329 329 332 335 337 337 336 336 335 335 335 335 334 335 336 338 338 338 338 339
319 318 331 334 331 327 331 342 344 347 345 351 354 348 341 352 346 341 341 343 349 346 349 350 346 341 343 339 332 329 329 329 329 331 332 333 334 334 333 333 334 336 337 336 337 338 338 337 338
319 320 318 319 325 331 326 336 340 339 351 353 347 347 346 351 345 341 340 341 344 345 340 344 353 350 345 341 338 335 334 328 330 330 330 330 330 330 331 332 334 336 339 338 339 339 339 339 338
316 318 317 317 325 327 321 321 327 345 339 335 329 333 348 352 345 342 338 342 343 346 349 350 351 349 345 345 342 341 340 339 335 330 329 331 332 333 333 332 333 335 338 340 340 340 340 339 338
311 321 322 321 323 325 319 323 324 321 331 323 326 329 334 349 345 342 341 340 346 346 343 341 347 348 346 345 340 339 338 338 337 337 335 333 337 333 332 337 334 334 335 336 338 339 340 338 339
318 323 320 319 319 321 320 320 319 324 324 325 328 342 345 350 346 343 343 340 347 345 341 342 339 338 339 341 340 338 340 342 343 341 338 337 337 339 342 338 335 335 335 335 336 336 337 340 343
316 321 318 319 318 318 318 319 318 323 325 325 328 335 348 349 346 343 342 340 344 341 341 340 340 338 338 341 342 343 331 332 343 347 348 346 347 346 346 347 346 346 343 344 344 345 345 346 346
320 317 319 319 318 317 319 318 318 319 320 321 325 340 348 350 347 345 343 341 345 339 341 342 342 340 342 346 346 337 327 326 327 328 329 336 346 349 350 351 350 349 347 347 348 346 347 348 349
320 318 317 316 316 317 318 318 318 318 316 321 336 345 347 350 348 345 345 345 345 338 339 344 343 342 345 342 330 324 324 323 324 324 325 327 331 333 336 341 344 346 348 348 348 349 348 348 348
317 318 317 317 317 317 319 318 319 319 317 320 332 341 345 348 346 345 344 344 345 335 338 335 334 331 327 323 323 323 322 323 323 323 323 323 324 325 326 327 332 340 342 345 347 348 349 349 348
317 320 320 319 317 318 318 318 321 320 319 321 321 320 318 329 346 346 343 340 339 331 333 332 327 323 321 320 321 321 321 321 320 319 318 318 318 319 320 323 325 327 330 335 343 346 348 348 348
320 319 321 319 318 318 318 320 321 320 322 324 324 324 323 318 323 340 332 331 330 329 328 325 322 321 320 318 318 319 318 316 315 314 314 314 314 314 316 319 323 326 329 331 337 344 346 347 347
319 321 321 320 318 318 320 319 321 320 323 325 326 326 326 326 322 320 327 328 329 327 325 321 320 319 319 317 316 316 316 315 314 314 314 313 313 314 316 318 321 323 331 335 335 338 343 345 346
321 320 319 321 319 318 321 322 321 321 323 324 325 326 327 327 326 325 326 325 325 325 321 319 319 318 318 317 315 315 315 315 314 313 313 312 312 313 314 315 313 315 325 330 333 338 342 343 344
318 321 320 319 318 319 322 322 322 321 322 324 325 326 327 327 325 325 325 324 323 322 320 319 319 318 317 317 319 319 319 315 315 314 313 313 313 312 312 312 313 316 320 321 325 330 337 339 341
320 320 320 318 318 318 321 322 321 321 321 321 323 324 326 326 326 325 324 324 323 323 320 319 319 319 318 319 319 319 318 318 317 317 316 315 315 314 314 313 312 311 317 315 318 324 329 333 338
319 320 320 320 318 317 320 321 320 320 321 321 320 322 323 324 325 324 324 324 325 325 325 323 320 319 319 319 320 320 319 318 319 319 318 317 315 315 314 313 312 311 314 316 317 319 322 326 330
320 317 318 319 319 322 316 321 320 320 321 322 321 321 320 320 322 322 322 323 323 322 322 322 322 323 324 322 323 323 323 322 321 320 320 320 316 315 315 313 312 310 310 310 314 316 319 322 323
319 316 317 317 319 318 319 319 320 319 321 321 321 321 320 319 318 318 317 317 317 318 318 318 317 318 318 316 316 318 318 318 318 318 320 319 318 315 318 314 313 311 313 310 311 315 316 317 320
314 316 315 314 317 318 319 319 319 321 321 320 320 321 320 319 318 317 316 315 315 315 315 314 314 311 312 312 309 313 315 316 317 318 318 318 319 319 316 317 314 312 312 312 312 312 315 315 316
318 317 316 316 316 314 317 318 318 319 319 319 320 318 316 316 316 316 315 313 312 312 312 313 313 313 309 308 310 311 311 312 315 316 316 318 318 319 319 316 316 316 314 311 311 311 311 314 314
316 318 316 313 315 314 317 317 321 317 315 316 317 316 315 314 314 314 312 312 311 311 312 311 312 313 312 311 311 311 310 310 311 313 315 316 318 319 319 318 317 315 313 311 309 311 311 312 312
317 319 315 320 317 319 318 319 318 316 317 316 317 316 315 314 313 313 311 311 312 311 311 311 311 311 311 311 311 310 309 308 309 312 313 313 316 318 318 318 318 316 313 312 310 310 310 311 312
317 315 319 319 322 314 316 318 317 320 318 316 316 315 314 313 313 312 311 311 310 310 309 308 309 310 310 310 309 309 308 307 308 309 309 310 313 317 317 316 315 313 311 310 310 309 309 310 310
317 317 317 317 319 320 316 314 318 318 318 317 316 315 314 313 312 311 310 310 309 309 308 308 308 309 308 309 308 307 307 306 307 307 307 307 308 311 312 311 311 310 309 309 309 309 309 309 310
316 317 317 321 317 318 319 318 316 317 317 316 315 314 312 311 311 311 309 308 308 309 308 308 308 308 308 307 306 305 304 304 305 306 306 307 309 310 310 309 309 308 307 308 308 308 308 308 309
Wind_Speed
3 1 6 3 2 4 4 4 1 5 4 2 4 1 1 3 2 3 4 8 12 13 11 13 11 13 17 19 19 19 21 20 19 18 18 18 17 16 15 14 13 12 11 11 10 10 9 9 10
1 7 2 1 4 7 4 1 5 5 4 6 2 3 2 1 1 2 4 6 10 14 12 16 14 14 16 17 18 18 19 19 18 17 16 15 15 15 14 12 11 10 9 8 8 8 8 7 7
6 4 1 2 3 5 6 3 2 3 6 4 4 1 1 1 1 1 2 8 9 12 12 12 15 15 16 15 16 16 17 18 17 16 16 15 14 13 12 11 10 8 8 7 6 6 5 5 4
4 2 2 4 10 3 4 8 6 9 5 4 2 2 2 2 4 3 6 8 7 9 9 11 11 15 15 14 14 15 14 14 15 15 14 13 13 12 10 9 8 7 6 6 5 4 4 3 3
4 1 3 7 4 1 2 4 11 8 4 6 8 4 2 3 3 8 7 5 9 7 6 8 11 12 16 15 13 14 13 14 13 12 11 10 10 9 8 7 7 7 7 6 5 5 5 4 4
2 1 6 7 5 3 0 6 3 3 2 5 4 6 5 3 10 10 11 8 8 9 7 8 9 14 14 12 13 11 11 12 12 12 11 10 9 8 7 7 7 7 8 8 8 7 7 7 8
4 3 3 4 6 5 1 6 4 4 5 6 4 6 1 4 12 7 10 11 9 9 7 8 8 12 14 12 11 9 8 8 9 9 9 10 9 8 8 8 8 8 8 9 9 9 9 9 9
3 3 5 2 7 5 3 2 5 6 3 4 0 1 2 5 13 6 6 8 8 10 10 11 10 11 11 10 9 7 5 4 5 6 8 8 8 8 9 9 10 11 11 11 12 12 12 12 12
1 3 6 4 9 5 1 4 3 2 5 1 2 2 4 8 12 7 3 7 5 6 8 9 9 10 11 11 8 6 5 4 4 4 5 5 6 7 9 10 11 12 13 14 15 15 15 14 14
3 5 3 2 1 2 1 3 2 4 4 2 3 1 1 11 10 7 7 8 4 4 6 6 7 8 9 9 9 7 4 3 5 5 6 6 7 7 7 9 11 12 13 14 16 17 17 16 13
2 5 3 2 2 1 2 3 1 7 5 5 8 7 6 11 8 8 7 6 6 8 9 9 8 9 10 9 8 7 6 4 5 6 6 7 8 8 7 7 8 9 12 10 10 11 11 11 11
6 2 2 1 1 2 3 3 5 6 10 11 6 3 8 12 14 13 9 8 8 10 12 14 14 15 14 11 11 10 7 6 4 3 2 2 4 7 8 7 8 10 10 10 10 9 10 12 12
7 3 5 2 4 3 4 10 6 16 21 9 2 3 7 11 15 13 11 11 10 11 6 9 13 16 16 14 12 9 6 5 5 4 3 3 4 5 5 5 6 8 9 11 10 10 10 11 12
5 10 7 6 5 6 9 12 4 15 21 6 7 7 7 9 13 14 15 15 9 1 3 4 7 7 6 8 10 10 9 8 8 8 7 6 6 7 8 8 8 7 8 9 11 12 12 12 12
6 11 12 13 7 5 4 9 12 16 11 13 12 10 12 14 15 19 13 9 4 2 4 8 7 9 10 9 9 10 10 10 11 10 8 7 7 6 7 7 9 10 12 12 11 12 13 14 12
4 2 3 9 8 5 6 5 12 16 14 14 12 11 12 14 17 16 10 3 1 3 8 7 7 9 9 8 9 9 8 10 10 9 7 7 6 5 5 6 7 9 10 13 13 11 12 13 13
4 5 6 2 9 3 6 4 11 11 10 13 13 14 13 13 14 13 4 4 4 6 8 7 7 7 7 7 8 7 7 7 8 7 6 7 7 7 7 8 9 9 9 10 11 13 11 12 13
3 4 4 3 6 10 11 7 8 11 11 13 12 13 14 15 15 13 8 7 9 10 9 7 5 5 4 4 4 5 5 6 7 7 7 7 7 8 9 9 11 12 11 11 12 10 10 11 13
5 5 4 2 3 3 8 8 9 10 14 15 13 12 12 13 12 12 11 10 11 11 9 7 5 3 2 2 2 2 2 3 5 5 5 5 6 7 8 9 12 12 10 11 13 14 11 11 8
4 4 3 1 3 1 4 8 8 11 11 11 11 11 11 11 12 13 11 10 11 10 8 6 4 2 3 3 2 1 2 3 3 5 6 6 6 6 6 7 9 10 7 10 11 11 12 9 8
5 3 1 2 2 5 8 5 4 5 6 8 11 10 11 11 12 12 13 11 9 7 4 1 4 5 6 6 4 6 9 9 7 9 11 12 9 7 6 5 5 7 8 6 8 8 8 10 12
2 2 3 5 3 6 2 4 4 4 4 7 8 9 10 11 10 13 15 17 16 12 11 9 8 9 7 8 9 10 12 14 13 14 12 13 14 12 10 6 4 5 5 7 7 7 7 7 13
2 3 2 3 6 2 2 4 6 6 3 3 5 7 9 10 11 12 16 16 16 17 17 16 16 15 15 17 14 15 16 19 20 19 19 18 19 17 13 11 7 4 4 5 7 8 8 8 9
3 1 2 2 1 4 4 3 6 5 3 2 2 6 8 9 9 10 11 12 14 15 15 16 17 17 14 13 13 13 15 19 20 21 24 21 19 17 18 15 13 10 7 6 7 10 9 9 10
7 4 2 2 2 3 3 6 3 3 2 2 1 3 5 6 7 8 11 13 15 16 17 18 18 19 17 16 16 17 20 22 20 21 22 23 21 20 19 20 18 13 10 8 9 12 15 13 12
4 3 1 4 3 7 5 5 2 4 4 3 2 2 3 6 8 9 13 14 18 21 21 23 22 20 18 15 15 18 21 23 22 21 21 23 22 21 19 19 18 17 13 10 12 13 16 16 16
2 2 2 0 1 4 1 1 5 6 3 4 4 4 8 11 12 13 17 18 20 21 21 24 23 24 23 22 21 24 25 27 28 23 21 22 21 20 18 18 17 14 11 10 11 14 18 18 19
4 5 0 2 3 6 3 4 7 8 4 2 4 7 9 12 14 14 20 20 21 21 22 24 25 27 26 24 25 28 31 32 32 28 27 27 24 18 16 15 15 14 13 13 13 14 15 17 21
3 2 3 1 2 3 6 3 1 4 3 5 10 9 14 16 17 16 22 21 23 25 28 28 29 28 26 25 28 30 33 35 30 31 33 32 31 26 20 19 20 19 17 15 16 17 17 19 20
1 2 2 1 1 4 5 8 1 4 3 5 8 12 16 16 18 21 24 25 28 29 31 31 32 29 27 28 32 33 33 31 31 31 30 28 27 25 23 23 21 21 22 21 20 21 20 21 22
Wind_Direction
360 262 148 164 88 85 80 72 42 154 190 189 151 236 333 236 300 54 132 163 158 155 163 152 147 135 141 150 147 148 158 162 157 152 149 148 148 149 148 145 141 137 134 131 126 119 115 113 116
58 132 161 105 89 112 87 23 170 167 139 143 189 293 246 309 43 98 146 201 176 158 164 155 153 146 136 148 154 157 157 161 161 158 154 153 152 153 152 152 148 145 140 137 133 129 125 121 121
129 166 277 77 142 144 123 192 133 128 146 176 182 263 334 302 134 102 215 160 170 164 165 160 155 151 139 143 150 158 162 165 164 163 160 158 157 158 158 159 158 157 155 154 153 150 147 142 139
150 163 108 130 119 129 101 146 146 140 154 181 173 224 221 181 134 55 121 153 158 169 166 152 152 146 140 136 143 150 157 163 165 164 163 162 162 165 168 169 175 175 181 178 179 180 182 184 182
62 105 90 119 112 280 65 122 170 173 164 173 175 164 190 172 112 95 115 148 161 141 124 124 137 141 140 137 144 149 159 159 166 169 170 173 176 180 187 191 192 198 203 206 212 213 223 233 233
93 27 127 151 149 285 120 138 190 237 217 168 191 168 141 108 123 105 89 111 137 131 118 121 138 140 134 141 139 148 158 168 168 182 184 196 202 204 212 224 229 224 224 226 233 239 247 252 257
94 86 123 149 160 211 268 143 175 240 168 184 130 178 134 208 148 119 87 82 115 132 131 125 129 123 142 146 145 144 152 160 182 191 197 206 212 220 227 235 243 248 245 243 246 254 259 264 266
99 101 136 150 182 195 105 111 151 181 127 102 58 274 139 118 160 147 133 90 95 140 149 137 126 125 127 127 139 136 140 149 186 201 211 218 224 229 237 242 250 253 256 259 262 263 266 271 274
154 94 117 133 174 157 120 134 167 47 146 12 335 284 335 137 153 160 153 165 128 129 143 130 126 123 124 125 121 132 131 158 185 199 215 223 230 243 246 248 252 255 259 263 265 269 272 272 273
42 99 115 146 153 181 83 68 124 173 149 254 255 163 60 151 159 187 180 178 162 149 150 152 145 136 125 124 139 136 130 190 210 210 215 226 233 240 249 255 261 263 265 267 270 273 274 275 266
49 90 146 114 131 124 68 93 100 142 199 208 198 174 172 168 186 225 203 188 200 173 173 182 184 168 164 156 164 173 168 154 173 201 232 245 244 245 241 247 260 264 268 261 264 270 273 266 266
103 84 45 102 148 201 140 98 92 26 334 306 230 125 179 190 201 217 224 217 212 197 187 189 188 186 185 186 181 181 180 176 181 203 261 301 262 254 251 251 254 260 256 254 261 259 262 266 269
81 49 43 357 12 48 66 49 60 30 349 340 122 184 204 207 216 225 236 242 221 208 200 190 190 191 187 175 174 167 149 128 106 88 56 26 12 345 330 306 288 274 267 262 260 262 261 265 271
78 82 55 13 342 48 79 39 34 356 335 6 9 328 291 265 249 249 244 240 241 22 70 126 142 147 141 149 143 134 122 114 107 86 66 46 21 3 350 345 327 312 294 277 269 266 265 264 264
135 94 59 27 349 76 138 48 10 344 1 34 13 349 329 272 251 254 270 290 302 129 151 147 146 143 143 137 125 124 117 107 90 76 64 52 39 19 3 347 336 328 316 303 284 275 268 264 264
108 79 101 17 0 54 204 105 29 358 10 31 18 0 341 331 271 256 258 275 47 150 168 146 146 149 148 134 126 117 101 94 91 86 75 63 50 27 6 359 345 331 321 312 301 287 273 265 260
39 109 105 101 25 333 26 86 23 27 35 41 24 12 9 358 7 350 259 174 197 159 146 150 150 142 137 134 123 117 106 92 87 71 55 41 27 32 31 22 10 356 342 328 316 294 276 272 269
97 114 89 98 18 76 79 74 32 38 62 55 37 28 22 21 20 24 45 82 115 140 145 140 128 129 126 110 98 92 95 87 80 60 46 42 33 22 17 22 17 10 3 354 345 326 296 279 279
111 108 115 154 56 98 93 89 46 34 46 47 47 31 24 26 23 44 68 84 102 116 128 129 124 102 67 31 6 23 30 61 41 23 17 27 27 31 25 24 14 10 15 6 356 343 329 305 291
96 109 57 250 27 153 159 96 62 47 47 43 42 41 30 26 26 35 51 83 101 109 108 111 113 81 62 93 95 123 309 269 274 298 296 305 318 329 335 358 12 7 7 3 4 3 342 313 316
61 90 160 279 4 86 149 156 124 68 58 55 51 53 48 36 24 16 20 25 26 38 47 125 173 193 210 205 212 243 273 275 276 278 279 277 278 277 293 326 8 6 0 7 11 1 356 325 314
235 343 290 279 250 282 232 289 169 124 82 55 40 40 37 31 33 30 24 19 19 17 2 347 336 335 338 312 321 322 311 302 295 297 281 273 262 252 251 265 316 347 349 351 1 358 348 330 311
53 342 324 302 244 273 163 248 138 192 146 73 33 34 33 30 20 18 16 13 11 7 4 357 344 334 329 328 327 321 312 305 301 297 289 285 269 256 240 240 244 262 296 324 342 351 346 326 310
309 210 80 87 189 238 129 324 177 188 179 156 38 27 18 14 14 14 20 15 7 1 355 349 346 340 334 331 340 334 326 313 301 292 285 281 276 256 248 240 236 238 250 285 318 327 331 323 307
21 352 332 207 226 308 141 281 4 148 86 29 40 37 27 23 13 2 358 357 347 338 330 319 314 310 305 311 321 328 327 320 310 307 301 295 282 268 246 237 234 230 240 267 301 313 318 315 308
39 4 309 293 285 308 279 256 117 111 82 73 89 40 18 357 349 335 327 322 327 322 314 316 302 295 285 289 299 310 317 316 306 301 300 295 285 271 251 235 231 233 240 261 290 303 304 307 303
87 74 16 245 236 263 241 194 199 176 91 52 21 335 343 344 327 318 318 316 314 316 311 312 301 297 286 283 297 307 311 313 304 292 295 296 291 278 257 239 228 225 238 265 282 292 295 297 297
67 122 206 36 306 295 239 268 286 202 234 265 297 318 327 323 321 319 318 317 316 315 311 310 302 297 291 283 296 302 305 304 297 286 288 287 285 273 255 242 240 247 261 273 279 281 281 283 288
144 125 77 359 256 278 304 300 148 267 195 337 332 323 322 324 322 320 318 313 311 309 309 308 304 300 295 292 298 301 301 298 290 287 288 284 278 265 258 259 263 268 276 277 276 278 281 280 283
248 149 121 167 232 245 282 289 32 170 152 329 309 319 322 318 317 314 314 314 315 312 310 307 305 299 297 298 299 299 298 293 290 290 288 284 273 261 263 261 264 272 277 275 273 276 277 277 281